Location: Unspecified
(33.9239°N, 118.0544°W)
Time: 22:08:56
(UTC-08:00)

Daily predictions for brighter satellites

Satellite Brightness Start Highest point End
(mag) Time Altitude Azimuth Time Altitude Azimuth Time Altitude Azimuth
Meteor 1-25 Rocket 4.2 17:56:59 10° S 18:02:25 61° E 18:07:53 10° NNE
Iridium 4 Rocket 4.0 18:00:38 10° NNE 18:04:35 28° E 18:08:17 10° SE
Cosmos 1633 2.5 18:02:09 10° S 18:05:39 62° E 18:09:11 10° NNE
Cosmos 44 Rocket 3.6 18:03:53 10° NNW 18:08:51 53° ENE 18:13:52 10° SE
COSMO-SKYMED 1 3.5 18:12:57 10° N 18:17:11 53° WNW 18:21:23 10° SSW
Okean 3 3.4 18:13:46 10° N 18:17:57 73° E 18:22:07 10° SSE
Sich 1 Rocket 3.7 18:14:10 10° S 18:18:33 55° E 18:22:55 10° NNE
FENGYUN 3A 3.8 18:15:44 10° SSE 18:21:07 83° WSW 18:26:34 10° NNW
ALOS 2.6 18:16:53 10° S 18:21:33 74° W 18:26:13 10° NNW
Cosmos 1048 Rocket 4.1 18:16:23 10° SSW 18:21:43 88° WNW 18:27:01 10° NNE
MONITOR-E 4.4 18:19:27 10° S 18:22:27 71° W 18:25:28 10° NNW
Cosmos 1452 Rocket 3.6 18:17:55 10° NNW 18:23:12 87° WSW 18:28:26 10° SSE
FALCON 9 R/B 3.9 18:17:55 10° W 18:24:07 88° N 18:46:37 13° E
Tsikada Rocket 4.4 18:19:45 10° SSE 18:25:43 43° E 18:31:43 10° NNE
Gbstr 26 Del rocket 2.8 18:22:17 10° SW 18:26:01 71° NW 18:29:48 10° NE
Cosmos 44 3.6 18:21:07 10° NNW 18:26:15 79° WSW 18:31:33 10° SSE
Okean 2 Rocket 3.8 18:25:53 10° SSE 18:29:43 31° E 18:33:36 10° NNE
ERS-2 2.7 18:28:14 10° SE 18:31:36 34° ENE 18:34:57 10° N
FengYun 1-2 T 4.3 18:28:06 10° SSE 18:33:26 54° ENE 18:38:46 10° N
Cosmos 921 Rocket 3.2 18:29:49 10° N 18:34:12 50° ENE 18:38:30 10° SSE
SPOT 3 Rocket 3.6 18:31:05 10° SSE 18:36:16 89° ENE 18:41:31 10° NNW
ARGOS Delta rocket 4.4 18:34:07 10° NNE 18:38:19 32° E 18:42:20 10° SSE
Cosmos 1464 Rocket 3.9 18:33:33 10° N 18:39:42 87° E 18:45:52 10° S
Cosmos 1420 Rocket 4.3 18:35:25 10° NNW 18:40:42 75° WSW 18:46:00 10° S
H-2A R/B 2.7 18:36:51 10° SSE 18:40:44 79° ENE 18:44:39 10° N
Cosmos 1908 Rocket 4.5 18:38:20 10° SSW 18:42:42 54° W 18:47:05 10° N
Centaur D-1A AC-32 4.0 18:38:39 10° WSW 18:43:02 50° SSE 18:54:57 16° E
SeaSat 1 3.8 18:44:26 18° ENE 18:45:43 20° NE 18:49:16 10° N
SL-16 R/B 2.6 18:41:13 10° NNW 18:46:49 66° WSW 18:52:24 10° S
GPS 2-05 Rocket1 2.5 18:46:52 10° WSW 18:50:05 77° SSE 18:51:17 34° E
COSMOS 2455 2.9 18:46:49 10° S 18:52:41 60° ESE 18:58:37 10° NNE
SJ-6B 3.1 18:49:21 10° SE 18:52:54 41° ENE 18:56:32 10° N
Cosmos 2346 Rocket 4.4 18:56:25 10° S 19:02:33 66° E 19:08:39 10° NNE
HJ-1C 3.3 18:59:22 10° SSE 19:02:46 70° ENE 19:06:10 10° N
CZ-2D R/B 3.4 19:02:32 18° SE 19:05:09 50° ENE 19:08:56 10° N
USA 215 3.2 18:59:05 11° NE 19:05:31 78° SE 19:12:03 10° SW
Cosmos 1603 3.7 19:00:18 10° NNW 19:05:50 55° ENE 19:09:51 18° SE
Envisat 3.1 19:01:34 10° SSE 19:06:26 49° ENE 19:11:18 10° N
BREEZE-M DEB (TANK) 3.1 19:04:15 10° SW 19:06:59 74° NW 19:13:55 10° NE
Sakura Rocket 4.2 19:03:15 10° WSW 19:08:20 53° S 19:11:49 27° ESE
ATLAS CENTAUR R/B 3.4 19:09:26 10° N 19:10:57 16° NNE 19:10:57 16° NNE
Okean 1 4.5 19:08:55 10° NNW 19:12:43 44° W 19:16:30 10° SSW
Cosmos 1975 Rocket 3.2 19:08:56 10° N 19:13:23 75° W 19:17:50 10° S
Meteor 1-4 Rocket 2.7 19:10:00 10° SSW 19:13:28 71° W 19:17:02 10° N
Cosmos 2263 Rocket 2.1 19:08:21 10° S 19:13:48 62° ESE 19:19:19 10° NNE
Cosmos 494 Rocket 4.1 19:09:54 10° SSW 19:15:07 78° WNW 19:20:20 10° NNE
Cosmos 2034 Rocket 4.5 19:11:02 10° NNW 19:17:19 64° W 19:23:33 10° S
Meteor 1-13 Rocket 4.0 19:12:17 10° N 19:17:48 72° E 19:23:18 10° SSE
Tiangong 2 4.1 19:25:34 10° WSW 19:26:33 11° SW 19:27:30 10° SSW
Cosmos 1110 Rocket 3.9 19:21:30 10° NNW 19:26:49 80° ENE 19:29:49 26° SSE
Cosmos 1634 Rocket 3.9 19:21:39 10° N 19:27:44 59° E 19:32:07 19° SSE
Resurs 01 Rocket 2.8 19:30:26 30° NNE 19:30:26 30° NNE 19:32:53 10° N
Thor Agena Rocket 3.8 19:24:06 10° N 19:29:07 65° WNW 19:34:05 10° SSW
OAO 2 Rocket 3.0 19:32:40 10° W 19:37:38 84° N 19:37:55 79° ENE
Cosmos 2142 Rocket 4.4 19:32:41 10° N 19:38:57 62° E 19:40:35 47° SE
Cosmos 1536 3.1 19:36:22 10° SSW 19:40:22 67° W 19:41:08 53° NNW
Lacrosse 5 rocket 2.9 19:40:41 10° SW 19:42:18 25° SSW 19:42:18 25° SSW
Meteor 1-5 Rocket 4.3 19:39:17 10° S 19:45:08 80° W 19:51:08 10° N
Meteor 2-4 Rocket 3.8 19:41:42 10° NNW 19:47:26 74° W 19:52:23 13° S
OAO 1 4.4 19:41:55 10° W 19:47:28 81° SSW 19:47:42 78° SSE
Spot 2 Rocket 4.5 19:58:05 36° N 19:58:05 36° N 20:01:05 10° N
Cosmos 1331 Rocket 4.5 19:51:23 10° NNW 19:56:36 60° WSW 19:58:09 42° SSW
Geosat 4.3 20:00:58 56° NNW 20:01:39 62° WNW 20:06:36 10° SW
CZ-4C R/B 3.0 19:55:20 10° NNW 20:02:25 57° NE 20:02:25 57° NE
Cosmos 1943 3.4 20:04:30 10° NNW 20:09:25 65° NW 20:09:25 65° NW
SeaSat 1 3.8 20:24:15 37° WNW 20:24:15 37° WNW 20:27:38 10° NW
